FW7492 Weather Reports


Display with metric or nautical units.
time (UTC)temp
F
wind
direction
speed
MPH
gust
MPH
rain 1hr
in
rain 24hr
in
rain mn
in
humidity
%
barometer
mb
20260902221606 92 110 8.0 13.0 0.00 0.00 0.00 52 1010.0
20260902220104 92 120 9.0 16.0 0.00 0.00 0.00 51 1010.0
20260902214606 93 103 3.0 11.0 0.00 0.00 0.00 51 1010.0
20260902213104 93 111 9.0 13.0 0.00 0.00 0.00 50 1010.2
20260902211617 92 115 7.0 16.0 0.00 0.00 0.00 52 1010.0
20260902210118 93 108 4.0 10.0 0.00 0.00 0.00 51 1010.1
20260902204605 92 100 7.0 13.0 0.00 0.00 0.00 51 1010.3
20260902203106 93 117 10.0 14.0 0.00 0.00 0.00 50 1010.3
20260902201612 93 0 6.0 11.0 0.00 0.00 0.00 50 1010.4
20260902200104 92 110 7.0 16.0 0.00 0.00 0.00 51 1010.6
20260902194604 92 135 6.0 13.0 0.00 0.00 0.00 52 1010.7
20260902193101 92 105 10.0 17.0 0.00 0.00 0.00 51 1011.0
20260902191603 92 126 8.0 14.0 0.00 0.00 0.00 51 1011.1
20260902190104 93 117 4.0 12.0 0.00 0.00 0.00 51 1011.1
20260902184600 92 291 3.0 17.0 0.00 0.00 0.00 51 1011.3
20260902183102 91 129 9.0 13.0 0.00 0.00 0.00 53 1011.4
20260902181604 92 120 9.0 15.0 0.00 0.00 0.00 52 1011.5
20260902180117 91 148 7.0 18.0 0.00 0.00 0.00 54 1011.6
20260902174602 91 110 7.0 14.0 0.00 0.00 0.00 54 1011.6
20260902173101 90 120 5.0 13.0 0.00 0.00 0.00 55 1011.9
20260902171607 90 115 8.0 16.0 0.00 0.00 0.00 55 1011.9
20260902170105 89 160 8.0 18.0 0.00 0.00 0.00 56 1012.2
20260902164601 89 114 6.0 11.0 0.00 0.00 0.00 56 1012.1
20260902163102 89 115 7.0 12.0 0.00 0.00 0.00 56 1012.5
20260902161609 89 108 3.0 12.0 0.00 0.00 0.00 58 1012.6
20260902160059 88 58 3.0 14.0 0.00 0.00 0.00 59 1012.6
20260902154604 88 108 8.0 14.0 0.00 0.00 0.00 61 1012.8
20260902153102 87 114 5.0 9.0 0.00 0.00 0.00 62 1012.9
20260902151603 87 146 3.0 11.0 0.00 0.00 0.00 63 1012.9
20260902150104 86 128 5.0 7.0 0.00 0.00 0.00 66 1012.8
20260902144614 85 114 5.0 8.0 0.00 0.00 0.00 67 1012.7
20260902143057 84 100 4.0 6.0 0.00 0.00 0.00 69 1012.8
20260902141602 83 108 4.0 7.0 0.00 0.00 0.00 71 1012.9
20260902140106 82 102 6.0 9.0 0.00 0.00 0.00 72 1012.8
20260902134601 81 118 4.0 8.0 0.00 0.00 0.00 74 1012.8
20260902133056 80 0 2.0 7.0 0.00 0.00 0.00 75 1012.7
20260902131557 79 0 0.0 7.0 0.00 0.00 0.00 75 1012.7
20260902130106 79 0 3.0 5.0 0.00 0.00 0.00 75 1012.8
20260902124556 78 0 2.0 4.0 0.00 0.00 0.00 77 1012.7
20260902123056 78 100 1.0 5.0 0.00 0.00 0.00 78 1012.5
20260902121600 77 0 0.0 3.0 0.00 0.00 0.00 78 1012.5
20260902120058 77 0 0.0 2.0 0.00 0.00 0.00 78 1012.4
20260902114603 77 0 0.0 2.0 0.00 0.00 0.00 78 1012.3
20260902113101 77 90 0.0 1.0 0.00 0.00 0.00 78 1012.1
20260902111604 77 97 0.0 1.0 0.00 0.00 0.00 78 1012.1
20260902110108 77 0 0.0 2.0 0.00 0.00 0.00 78 1012.2
20260902104600 77 0 0.0 3.0 0.00 0.00 0.00 79 1012.2
20260902103105 76 0 1.0 4.0 0.00 0.00 0.00 82 1012.1
20260902101557 76 291 3.0 5.0 0.00 0.00 0.00 82 1012.0
20260902100115 76 285 1.0 4.0 0.00 0.00 0.00 81 1011.8
20260902094616 77 285 0.0 4.0 0.00 0.00 0.00 80 1011.8
20260902093057 77 0 0.0 1.0 0.00 0.00 0.00 79 1011.7
20260902091601 78 0 0.0 1.0 0.00 0.00 0.00 78 1011.7
20260902090055 77 0 0.0 2.0 0.00 0.00 0.00 80 1011.5
20260902084601 78 0 0.0 4.0 0.00 0.00 0.00 79 1011.5
20260902083058 79 0 0.0 1.0 0.00 0.00 0.00 76 1011.3
20260902081554 79 0 0.0 0.0 0.00 0.00 0.00 75 1011.2
20260902080113 80 198 0.0 0.0 0.00 0.00 0.00 75 1011.1
20260902074557 80 0 0.0 0.0 0.00 0.00 0.00 75 1011.1
20260902073053 80 0 0.0 0.0 0.00 0.00 0.00 74 1011.2
20260902071555 80 0 0.0 4.0 0.00 0.00 0.00 73 1011.1
20260902064609 81 0 1.0 3.0 0.00 0.00 0.00 72 1011.1
20260902063100 81 0 1.0 4.0 0.00 0.00 0.00 71 1011.1
20260902061602 81 0 0.0 2.0 0.00 0.00 0.00 71 1011.1
20260902060107 82 143 0.0 4.0 0.00 0.00 0.00 70 1011.1
20260902054557 82 0 0.0 3.0 0.00 0.00 0.00 69 1011.1
20260902053111 83 0 0.0 3.0 0.00 0.00 0.00 68 1011.2
20260902051600 83 108 1.0 4.0 0.00 0.00 0.00 68 1011.2
20260902050059 83 0 1.0 4.0 0.00 0.00 0.00 67 1011.2
20260902044601 84 139 1.0 4.0 0.00 0.00 0.00 66 1011.2
20260902043100 84 0 0.0 3.0 0.00 0.00 0.00 65 1011.2
20260902041605 84 0 0.0 3.0 0.00 0.00 0.00 65 1011.2
20260902040106 85 0 0.0 5.0 0.00 0.00 0.00 65 1011.3
20260902034607 85 168 0.0 3.0 0.00 0.00 0.00 64 1011.3
20260902033108 85 0 1.0 5.0 0.00 0.00 0.00 63 1011.2
20260902031604 85 326 2.0 5.0 0.00 0.00 0.00 64 1011.2
20260902030103 85 0 1.0 4.0 0.00 0.00 0.00 65 1011.2
20260902024608 85 0 0.0 3.0 0.00 0.00 0.00 65 1011.3
20260902023056 85 0 0.0 3.0 0.00 0.00 0.00 65 1011.3
20260902021615 86 128 0.0 3.0 0.00 0.00 0.00 63 1011.2
20260902020104 87 0 1.0 5.0 0.00 0.00 0.00 62 1011.2
20260902014555 87 0 0.0 4.0 0.00 0.00 0.00 62 1011.2
20260902013105 88 0 0.0 5.0 0.00 0.00 0.00 60 1011.1
20260902011603 88 84 0.0 5.0 0.00 0.00 0.00 60 1011.0
20260902004600 89 141 1.0 7.0 0.00 0.00 0.00 58 1010.7
20260902003104 89 210 1.0 6.0 0.00 0.00 0.00 57 1010.7
20260902001559 89 0 1.0 8.0 0.00 0.00 0.00 57 1010.8
20260902000057 90 0 2.0 9.0 0.00 0.00 0.00 56 1010.7
20260901234558 90 104 2.0 7.0 0.00 0.00 0.00 56 1010.8
20260901233100 90 168 5.0 10.0 0.00 0.00 0.00 56 1010.9
20260901231559 91 122 7.0 12.0 0.00 0.00 0.00 55 1010.9
20260901230058 92 122 2.0 10.0 0.00 0.00 0.00 54 1010.8
20260901224601 91 108 8.0 12.0 0.00 0.00 0.00 54 1010.8
20260901223057 92 117 4.0 11.0 0.00 0.00 0.00 53 1010.7